Flag for Canada Weather past 2 weeks in Bathurst, New Brunswick, Canada

Now
63 °F

Passing clouds.


Feels Like: 63 °F
Forecast: 52 / 69 °F
Wind: 13 mph from Northwest

Location: Bathurst Airport

Current Time: Sep 1, 2015 at 1:28:06 AM

Latest Report: Sep 1, 2015 at 12:00 AM


Visibility: 15 mi

Pressure: 29.75 "Hg

Humidity: 68%

Dew point: 52 °F

Location of BathurstLocation

Historic Weather in Bathurst — Graph

°F

Bathurst temperature yesterday

Maximum temperature yesterday: 77 °F (at 12:00 PM)
Minimum temperature yesterday: 61 °F (at 12:00 AM)
Average temperature yesterday: 69 °F

Past Weeks' High & Low Weather Summary

 TemperatureHumidityPressure
High91 °F (Aug 17, 4:00 PM)100% (Aug 20, 2:00 AM)30.16 "Hg (Aug 20, 2:00 AM)
Low54 °F (Aug 24, 7:00 AM)41% (Aug 17, 2:00 PM)29.53 "Hg (Aug 31, 4:00 PM)
Average69 °F79%29.98 "Hg
* Reported Midnight between Aug 16 and Aug 17 — Midnight between Aug 31 and Sep 1, Bathurst, Weather by CustomWeather, © 2015

Note: Actual official high and low records may vary slightly from our data, if they occured in-between our weather recording intervals... More about our weather records

Advertising

Bathurst weather history for previous 24 hours

 ConditionsComfort  
Time TempWeatherWind HumidityBarometerVisibility
12:00 AM
Tue, Sep 1
63 °FPassing clouds.13 mph68%29.75 "Hg15 mi
11:00 PM
Mon, Aug 31
66 °FPassing clouds.14 mph64%29.71 "Hg15 mi
10:00 PM68 °FOvercast.13 mph64%29.67 "Hg15 mi
9:00 PM68 °FPassing clouds.13 mph64%29.63 "Hg15 mi
8:00 PM68 °FPassing clouds.6 mph64%29.62 "Hg15 mi
7:00 PM72 °FPassing clouds.12 mph57%29.59 "Hg15 mi
6:00 PM73 °FPassing clouds.12 mph65%29.57 "Hg15 mi
5:00 PM68 °FSprinkles. Partly sunny.16 mph83%29.56 "Hg12 mi
4:04 PM75 °FRain showers. Partly sunny.14 mph57%29.54 "Hg8 mi
4:00 PM77 °FSprinkles. Partly sunny.16 mph54%29.53 "Hg10 mi
3:00 PM75 °FPartly sunny.17 mph61%29.56 "Hg15 mi
2:00 PM73 °FOvercast.14 mph65%29.61 "Hg15 mi
1:00 PM75 °FPartly sunny.16 mph57%29.61 "Hg15 mi
12:00 PM77 °FMostly cloudy.15 mph54%29.63 "Hg15 mi
11:00 AM75 °FPassing clouds.10 mph57%29.66 "Hg15 mi
10:00 AM73 °FPassing clouds.15 mph61%29.69 "Hg15 mi
9:00 AM66 °FPassing clouds.7 mph83%29.71 "Hg15 mi
8:00 AM66 °FPartly sunny.7 mph83%29.74 "Hg15 mi
7:00 AM64 °FPassing clouds.9 mph83%29.74 "Hg15 mi
6:00 AM64 °FPartly cloudy.9 mph83%29.77 "Hg15 mi
5:00 AM64 °FPassing clouds.10 mph83%29.79 "Hg15 mi
4:00 AM63 °FPartly cloudy.10 mph88%29.81 "Hg15 mi
3:00 AM63 °FPassing clouds.9 mph88%29.82 "Hg15 mi
2:00 AM63 °FPassing clouds.8 mph88%29.84 "Hg12 mi
1:00 AM61 °FPassing clouds.3 mph94%29.85 "Hg12 mi
Weather by CustomWeather, © 2015

See weather overviewHow to use our weather pages